Simultaneous Nadir Overpasses (SNOs) Predictions

Prediction of SNOs between GOES-17 and METOP-C Satellite Orbit:

Table of predicted SNOs for the next 14.0 days since TLE Epoch: 10/17/2020
Index Date Time (GOES-17) GOES-17 Lat,Lon METOP-C Lat,Lon Distance(km) Time Diff (sec)
1 10/17/2020 06:51:58 0.05,-137.21 -0.55,-139.75 290.22 80
2 10/18/2020 06:31:02 0.05,-137.21 0.57,-134.76 278.64 63
3 10/19/2020 18:47:33 -0.04,-137.20 0.43,-139.32 241.79 80
4 10/20/2020 18:29:34 -0.04,-137.20 -0.69,-134.33 326.61 80
5 10/22/2020 06:48:36 0.04,-137.18 -0.34,-138.93 198.40 80
6 10/23/2020 06:27:57 0.03,-137.17 0.79,-133.94 369.71 80
7 10/24/2020 18:44:09 -0.03,-137.16 0.28,-138.49 151.78 80
8 10/25/2020 18:26:11 -0.03,-137.15 -0.84,-133.50 416.18 80
9 10/27/2020 06:45:12 0.03,-137.13 -0.17,-138.09 109.16 80
10 10/28/2020 06:21:54 0.03,-137.12 0.95,-133.10 458.60 80
11 10/29/2020 18:40:47 -0.03,-137.10 0.07,-137.66 63.65 80
